TIME,DELAY(SENSOR),PRES,OXYGEN,RAWTEMP,T(OPTODE),TCPHASE,FLUOR,BETA(BETA700),BETA(BETA412),BETA(BETA440),CDOM,C(CSC),ED(ED412.20),ED(ED444.00),ED(ED489.60),ED(ED554.30),LU(LU412.10),LU(LU443.90),LU(LU489.70),LU(LU554.70),COMP,TILTX,TILTY,CHECK
1372391949,5810,866.8699951171875000,31.1114292144775400,564.2147827148438000,4.3551959991455080,56.9557991027832000,55,98,100,78,80,15610,0,0,0,0,2147118692,2147775734,2147566235,2147567232,3522,2,13,7967
1372395545,5811,947.8699951171875000,33.7261390686035160,570.4348754882812000,4.1620450019836430,56.5890617370605500,55,99,99,79,80,15606,0,0,0,0,2147119853,2147771117,2147569654,2147565942,2792,2,13,10009
1372399145,5809,958.5900268554688000,35.3056297302246100,571.7869262695312000,4.1200180053710940,56.3553810119628900,55,96,99,77,79,15606,0,0,0,0,2147125778,2147769472,2147566436,2147565641,3036,2,13,11961
1372402745,5813,977.6500244140625000,36.1523399353027340,575.8552856445312000,3.9934558868408203,56.2641296386718750,55,99,99,77,79,15607,0,0,0,0,2147119826,2147772187,2147567268,2147568292,738,2,13,14958
1372406345,5810,988.9600219726562000,35.7517814636230500,576.1724853515625000,3.9835829734802246,56.3278884887695300,55,97,100,77,78,15606,0,0,0,0,2147120905,2147769636,2147572571,2147566509,68,2,13,58342
1372409945,5810,988.7600097656250000,35.1434211730957000,576.0836791992188000,3.9863469600677490,56.4213485717773440,55,98,99,78,80,15606,0,0,0,0,2147122349,2147766427,2147570953,2147567094,101,2,13,40456
1372413545,5808,993.8599853515625000,28.9646606445312500,576.3372802734375000,3.9784550666809080,57.4219398498535160,55,97,98,77,80,15602,0,0,0,0,2147120941,2147769618,2147569901,2147562742,182,3,13,28544
1372417145,5807,991.6799926757812000,34.6268386840820300,575.9960937500000000,3.9890749454498290,56.5038108825683600,55,98,99,78,81,15602,0,0,0,0,2147122102,2147769389,2147570779,2147566619,166,2,13,27608
1372420745,5811,1001.1199951171875000,28.7691402435302730,575.8358764648438000,3.9940619468688965,57.4462394714355500,55,97,100,77,81,15598,0,0,0,0,2147123492,2147773604,2147571611,2147563300,25,2,13,21802
1372424345,5812,997.2899780273438000,32.7707290649414060,575.9083862304688000,3.9918060302734375,56.7913703918457000,54,96,100,77,80,15598,0,0,0,0,2147123273,2147771300,2147570304,2147566683,58,2,13,15006
1372427945,5809,998.9099731445312000,31.6639404296875000,576.6234741210938000,3.9695429801940920,56.9864997863769500,54,96,98,76,79,15597,0,0,0,0,2147118884,2147768822,2147570614,2147563940,404,2,13,52863
1372431545,5811,1000.1900024414062000,31.1302299499511720,575.9091186523438000,3.9917850494384766,57.0569801330566400,55,97,99,77,80,15593,0,0,0,0,2147122825,2147771520,2147568228,2147566025,3535,2,13,37859
1372435145,5811,1001.8400268554688000,30.8571491241455080,575.8607788085938000,3.9932880401611330,57.1001701354980500,54,99,98,77,79,15594,0,0,0,0,2147119442,2147769453,2147573705,2147570468,3503,2,13,65039
1372438745,5811,1001.2000122070312000,30.6493701934814450,576.4240112304688000,3.9757559299468994,57.1417884826660160,55,97,99,83,80,15596,0,0,0,0,2147122468,2147772480,2147571840,2147565686,3367,2,13,43432
1372442345,5809,998.1400146484375000,30.5603103637695300,576.5891723632812000,3.9706120491027830,57.1626510620117200,55,97,99,78,80,15597,0,0,0,0,2147123172,2147771309,2147570998,2147563209,3551,2,13,56542
1372445945,5812,992.4400024414062000,33.5611801147460940,576.0568847656250000,3.9871830940246580,56.6725807189941400,55,96,101,76,80,15596,0,0,0,0,2147123638,2147772452,2147571227,2147567588,2826,2,13,3214
1372449545,5808,998.7500000000000000,31.0229396820068360,577.0357055664062000,3.9567110538482666,57.0901718139648440,54,95,99,77,79,15596,0,0,0,0,2147122048,2147770322,2147570669,2147567515,46,3,13,4859
1372453145,5807,1003.9899902343750000,30.7280902862548830,575.9805297851562000,3.9895629882812500,57.1308097839355500,54,98,98,77,78,15595,0,0,0,0,2147122029,2147767835,2147566546,2147566052,3588,2,13,54213
1372456745,5808,1006.4699707031250000,29.1562404632568360,576.4611816406250000,3.9745979309082030,57.3896598815918000,55,94,100,79,80,15596,0,0,0,0,2147118189,2147769316,2147571190,2147565321,558,2,13,821
1372460345,5811,1004.2399902343750000,32.9492492675781250,576.3140869140625000,3.9791760444641113,56.7737884521484400,55,97,99,78,80,15594,0,0,0,0,2147122797,2147773302,2147565668,2147567241,114,2,13,49051
1372463945,5810,1003.0800170898438000,34.8793983459472660,576.6206054687500000,3.9696350097656250,56.4659309387207000,54,96,98,77,78,15593,0,0,0,0,2147122450,2147770240,2147572672,2147568612,299,2,13,16509
1372467545,5808,1006.8400268554688000,33.2070198059082000,576.5040283203125000,3.9732649326324463,56.7324981689453100,54,96,99,77,80,15593,0,0,0,0,2147124489,2147770998,2147569865,2147567460,3367,2,13,50526
1372471145,5810,1008.3300170898438000,34.0444984436035160,576.4884033203125000,3.9737510681152344,56.5952186584472660,54,97,98,77,78,15589,0,0,0,0,2147122038,2147769380,2147571739,2147565321,94,2,13,27830
1372474745,5809,1005.7700195312500000,34.8997383117675800,576.4710083007812000,3.9742929935455322,56.4589195251464840,55,97,98,78,80,15591,0,0,0,0,2147120749,2147767478,2147574070,2147567168,3549,2,13,29541
1372478345,5811,1007.4400024414062000,34.8135299682617200,576.4807128906250000,3.9739909172058105,56.4782981872558600,54,97,98,78,79,15592,0,0,0,0,2147120886,2147770706,2147568128,2147566354,293,2,13,62428
1372481945,5808,1008.7899780273438000,28.4151306152343750,576.3911132812500000,3.9767820835113525,57.5130882263183600,55,96,99,78,80,15592,0,0,0,0,2147120502,2147772745,2147571913,2147563785,3587,2,13,12499
1372485545,5811,1010.9000244140625000,31.7965908050537100,576.2600708007812000,3.9808580875396730,56.9518699645996100,55,97,99,77,79,15591,0,0,0,0,2147121444,2147767606,2147570861,2147565211,3510,2,13,42415
1372489145,5808,1006.7000122070312000,31.2532405853271500,576.4854125976562000,3.9738459587097170,57.0419311523437500,54,96,99,76,79,15591,0,0,0,0,2147118930,2147769289,2147565412,2147562706,3369,2,13,15628
1372492745,5808,1007.0000000000000000,32.4237899780273440,576.5792846679688000,3.9709210395812990,56.8531799316406250,54,99,100,77,80,15592,0,0,0,0,2147119122,2147768557,2147568109,2147567286,405,2,13,7980
1372496345,5807,1005.8900146484375000,34.2188606262207000,576.4451293945312000,3.9750978946685790,56.5704498291015600,55,97,99,76,80,15592,0,0,0,0,2147119780,2147764297,2147570944,2147566454,3585,2,13,64440
1372499945,5812,1004.4699707031250000,30.0905303955078120,576.5971069335938000,3.9703669548034670,57.2369003295898440,55,96,99,77,79,15589,0,0,0,0,2147122276,2147769947,2147567917,2147566546,122,2,13,16125
1372503545,5810,1007.2199707031250000,32.7706718444824200,576.4843139648438000,3.9738790988922120,56.8010787963867200,54,98,99,78,80,15590,0,0,0,0,2147119122,2147770688,2147564187,2147565248,283,2,13,50524
1372507145,5810,1009.0599975585938000,33.2630805969238300,576.3535766601562000,3.9779469966888428,56.7178001403808600,54,96,99,78,79,15411,0,0,0,0,2147121856,2147767643,2147573248,2147569462,3372,2,13,6690
1372510745,5812,1012.5399780273438000,33.2253608703613300,576.2003784179688000,3.9827179908752440,56.7297897338867200,54,97,99,77,78,15404,0,0,0,0,2147121664,2147768164,2147573732,2147567350,26,2,13,45954
1372514345,5807,1015.0100097656250000,33.5930213928222660,576.2553100585938000,3.9810070991516113,56.6672592163085940,55,96,100,76,78,15398,0,0,0,0,2147123300,2147772553,2147568621,2147564845,421,2,13,22850
1372517945,5810,1013.5100097656250000,31.7900505065917970,576.4003906250000000,3.9764900207519530,56.9589805603027340,54,97,100,77,79,15399,0,0,0,0,2147122102,2147769526,2147571611,2147565888,145,3,13,1142
1372521545,5810,1010.5399780273438000,31.6406593322753900,576.3024291992188000,3.9795420169830322,56.9797210693359400,54,98,100,77,80,15396,0,0,0,0,2147121984,2147768832,2147571620,2147569060,5,3,13,2505
1372525145,5806,1009.6699829101562000,36.2405815124511700,576.3306274414062000,3.9786639213562010,56.2521705627441400,54,97,100,78,81,15400,0,0,0,0,2147121664,2147772754,2147579401,2147565778,676,2,13,50546
1372528745,5806,1000.0300292968750000,35.2047004699707000,576.0048828125000000,3.9888000488281250,56.4086189270019500,56,97,100,76,80,15390,0,0,0,0,2147118354,2147770276,2147572105,2147568960,745,2,13,24853
1372532345,5812,1006.1199951171875000,35.6062507629394500,576.6295776367188000,3.9693570137023926,56.3554191589355500,55,101,99,78,80,15394,0,0,0,0,2147119497,2147772388,2147572873,2147563565,98,3,13,46492
1372535945,5810,1008.4799804687500000,32.7776107788085940,576.0549926757812000,3.9872419834136963,56.7933883666992200,54,95,99,78,80,15391,0,0,0,0,2147123529,2147770889,2147570413,2147568630,489,2,13,52706
1372536055,5808,1008.6799926757812000,31.1568393707275400,575.9448242187500000,3.9906749725341797,57.0584983825683600,55,96,98,77,79,15384,0,0,0,0,2147117092,2147770880,2147575497,2147567753,483,2,13,29375
